Zurück zum Katalog

FENGYUN 1C DEB

AktivPO
NORAD 29859·DEBRIS·🇨🇳 China

Gestartet May 10, 1999 von Taiyuan Satellite Launch Center

Loading…

Nächste Überflüge (nächste 24 Stunden)

TLE

AktuellSource: Space-Track

Epoche: Sep 14, 2026, 09:26 UTC

1 29859U 99025FD  26257.39311097  .00002099  00000-0  16316-2 0  9992
2 29859  98.3506  62.8605 0292980 187.3492 172.3319 13.75156133977674

Verfolge FENGYUN 1C DEB in Echtzeit mit AllMySat

Download on the App Store